Tracking 30995 objects as of 6-Jul-2025
HD Live streaming from Space Station
objects crossing your sky now

STARLINK-31823

Track STARLINK-31823 now!
10-day predictions
STARLINK-31823 is classified as:


NORAD ID: 59794
Int'l Code: 2024-093N
Perigee: 487.6 km
Apogee: 493.0 km
Inclination: 43.0 °
Period: 94.3 minutes
Semi major axis: 6861 km
RCS: Unknown
Launch date: May 18, 2024
Source: United States (US)
Launch site: AIR FORCE EASTERN TEST RANGE (AFETR)
Your satellite tracking list
Your tracking list is empty




NASA's NSSDC Master Catalog

Two Line Element Set (TLE):
1 59794U 24093N   25185.99075159 -.00004382  00000-0 -14992-3 0  9995
2 59794  43.0007 167.7204 0003972 260.3959  99.6443 15.27543387 64811
Source of the keplerian elements: AFSPC